Location: ????????
(55.4717°N, 39.1821°E)
Time: 16:49:22
(UTC+00:00)

Cosmos 2297 - Pass Details

Date: 14 April 2024
Orbit: 834 x 859 km, 71.0° (Epoch: 23 May)

Event Time Altitude Azimuth Distance (km) Brightness Sun altitude
Rises 01:19:48 0° 325° (NW) 3,438 6.8 -8.7°
Reaches altitude 10° 01:22:16 10° 326° (NW) 2,501 6.1 -8.4°
Maximum altitude 01:28:03 89° 60° (ENE) 867 3.8 -7.7°
Drops below altitude 10° 01:33:48 10° 148° (SSE) 2,493 6.2 -7.0°
Sets 01:36:15 0° 148° (SSE) 3,426 6.9 -6.6°
